Showing default

KUIPER-00013, 63729

Orbit data source: Space-Track

KUIPER-00013, 63729 is a payload satellite owned by Kuiper Systems (US) in LEO that was launched on Mon, 28 Apr 2025 UTC via an ATLAS V 551 launch vehicle from the Air Force Eastern Test Range (AFETR). Payload-class satellites include a variety of spacecraft equipped with specific instruments for various scientific and technological missions. These include communications satellites like Starlink; space stations such as the ISS; scientific satellites like the Hubble; Earth observation satellites from companies like Planet Labs, Umbra, and HawkEye 360; GPS; miniature CubeSats for education and research; and military/defense satellites.

Loading next visibility...
Identifier
63729, 2025-088F
Orbit
LEO
Country
Flag of USUS
Related business
Manufacturer
Kuiper Systems
Mission
Operational Commercial Communications
Bus & Motor
KUIPER, Unknown motor
Mass
~490 kg wet, ~490 kg dry
Launch date (UTC)
2025-04-28 (8 months ago)
Launch vehicle
ATLAS V 551
Launch site
Air Force Eastern Test Range (AFETR)
Object type
Payload
Rocket body
Debris
Shape & HBR
Box + 2 Pan, 3.4 m
Radar Cross Section
2.326 m², Large (>1 m²)

Expand to show TLE details & history
Last TLE update: 20 hours ago

TLE from 20 hours ago
0 KUIPER-00013
1 63729U 25088F   25348.76193229  .00009034  00000-0  12152-2 0  9990
2 63729  51.9010 123.6367 0009410 101.6058 258.5961 14.79819521 34996
Epoch: 2025-12-14T18:17Z
TLE epoch observation values (Epoch: 2025-12-14T18:17:10.949Z)
Latitude
-0.00004°
Longitude
125.67084°
Altitude
631.951 km
Speed
7.543 km/s
True Right ascension
08h 14m 32s
True Declination
0° 00' 00"
Sunlit
Object was in full shadow at epoch
Visualization orbit readout
Latitude
Unknown
Longitude
Unknown
Altitude
Unknown
Speed
Unknown
Apparent Right ascension
Unknown
Apparent Declination
Unknown
Sunlit
N/A
Visualization observer readout
Local Sidereal Time
13:22:55
Azimuth
Unknown
Elevation
Unknown
Doppler factor
Unknown
Orbital elements
Apogee altitude
636.94 km
Perigee altitude
623.75 km
Semi-major axis
7,008.482 km
Eccentricity
0.00094
Inclination
51.901°
RAAN
123.6367°
Arg. of periapsis
101.6058°
True anomaly
258.49042°
Mean anomaly
258.5961°
Eccentric anomaly
258.54326°
Mean motion
3.6992 °/min
Orbital period
97.32 mins
BSTAR
0.0012152
Loading maneuver chart data...
Computing Atmospheric mass density...
Loading historical data...
Loading historical data...
Loading historical data...
Loading historical data...
Loading historical data...
Loading historical data...
Loading historical data...

Documentation

Showing up to 5 results
|